{"data":{"norad_id":61509,"intl_designator":"2024-183A","name":"STARLINK-32174","alt_names":[],"object_type":"PAYLOAD","status":"ACTIVE","operator":null,"country":"US","launch_date":"2024-10-15","launch_site_code":"AFETR","launch_vehicle":null,"mission":null,"orbit_class":"UNKNOWN","rcs_meters":null,"size_class":null,"mass_kg":null,"dimensions":null,"purposes":["comms"],"wikipedia_slug":null,"has_3d_model":false,"image_url":null,"decayed_at":null,"tle_current":{"epoch":"2026-05-25T02:44:08.105280Z","epoch_age_seconds":59227,"freshness":"FRESH","line1":"1 61509U 24183A   26145.11398270 -.00000579  00000+0 -74179-5 0  9993","line2":"2 61509  53.1596 134.6587 0001260  76.4832 283.6309 15.30184702 91535","mean_motion":15.30184702,"eccentricity":0.000126,"inclination_deg":53.1596,"raan_deg":134.6587,"arg_perigee_deg":76.4832,"mean_anomaly_deg":283.6309,"bstar":-7.4179e-6,"rev_number":9153,"period_min":94.106286523311,"perigee_km":474.39721875428,"apogee_km":476.12427498649,"semimajor_km":6853.3977468704,"source":"CELESTRAK","updated_at":"2026-05-25T13:38:19.368125Z"}}}